Stations météo

Publicité
Bourges, France (7255): Température de l'air & dewpoint: 12.02.2020 07:00:00 - 18.02.2020 07:00:00 (CET)Bourges, France (7255): Température de l'air 5cm: 12.02.2020 07:00:00 - 18.02.2020 07:00:00 (CET)Bourges, France (7255): Température de l'air -20cm & Température de l'air -100cm: 12.02.2020 07:00:00 - 18.02.2020 07:00:00 (CET)Bourges, France (7255): Vitesse du vent & gusts: 12.02.2020 07:00:00 - 18.02.2020 07:00:00 (CET)Bourges, France (7255): Direction du vent: 12.02.2020 07:00:00 - 18.02.2020 07:00:00 (CET)Bourges, France (7255): reduced air pressure: 12.02.2020 07:00:00 - 18.02.2020 07:00:00 (CET)Bourges, France (7255): visibility: 12.02.2020 07:00:00 - 18.02.2020 07:00:00 (CET)Bourges, France (7255): Ensoleillement: 12.02.2020 07:00:00 - 18.02.2020 07:00:00 (CET)Bourges, France (7255): Quantités de précipitations: 12.02.2020 07:00:00 - 18.02.2020 07:00:00 (CET)
Date & Time tt [°C] td [°C] tt 5cm [°C] tt -20cm [°C] tt -100cm [°C] ff [km/h] ff [knt] fx [km/h] fx [knt] dd ppp [hPa] vv [km] sd [min] rr [mm]
18.02.2020 07:00:00 - - - - - - - - - - - - - -
18.02.2020 06:00:00 3,4 2,5 1,7 7,8 9,2 8 4 18 10 SW 1031,6 20 0 0,0
18.02.2020 05:00:00 4,3 3,0 3,3 7,9 9,2 9 5 20 11 W 1031,5 20 0 0,0
18.02.2020 04:00:00 4,6 3,1 3,8 8,0 9,2 12 7 25 14 WSW 1031,0 20 0 0,0
18.02.2020 03:00:00 5,2 3,4 4,5 8,2 9,2 16 9 27 15 WSW 1030,7 20 0 0,0
18.02.2020 02:00:00 5,5 3,5 4,7 8,4 9,2 16 9 29 15 WSW 1030,7 20 0 0,0
18.02.2020 01:00:00 5,8 3,6 4,9 8,6 9,2 16 9 31 17 WSW 1030,3 20 0 0,0
18.02.2020 00:00:00 6,3 3,3 5,5 8,7 9,2 17 9 30 16 WSW 1029,8 20 0 0,0
17.02.2020 23:00:00 6,7 3,5 5,7 8,9 9,2 16 9 29 16 WSW 1029,2 20 0 0,0
17.02.2020 22:00:00 7,0 3,8 6,2 9,1 9,2 16 8 27 15 WSW 1028,4 20 0 0,0
17.02.2020 21:00:00 7,2 4,3 6,2 9,3 9,1 13 7 25 14 W 1027,7 20 0 0,0
17.02.2020 20:00:00 7,2 4,8 6,1 9,5 9,2 14 7 27 15 WSW 1026,7 20 0 0,0
17.02.2020 19:00:00 7,8 5,4 6,6 9,6 9,1 15 8 23 13 WSW 1025,6 20 0 0,0
17.02.2020 18:00:00 8,2 6,0 7,7 9,7 9,1 14 8 26 14 WSW 1024,4 20 37 0,0
17.02.2020 17:00:00 8,5 6,3 7,0 9,6 9,1 12 6 63 34 W 1023,9 20 0 0,6
17.02.2020 16:00:00 11,8 5,0 11,6 9,5 9,1 26 14 48 26 WSW 1022,8 20 45 0,0
17.02.2020 15:00:00 11,2 5,3 11,2 9,4 9,1 22 12 46 25 W 1022,6 20 26 0,0
17.02.2020 14:00:00 10,4 5,8 10,6 9,3 9,1 23 13 41 22 W 1022,7 20 15 0,0
17.02.2020 13:00:00 9,8 6,1 9,8 9,3 9,1 18 10 48 26 WSW 1022,9 20 5 0,0
17.02.2020 12:00:00 9,1 5,8 8,2 9,4 9,1 22 12 42 23 WSW 1022,7 20 0 0,0
17.02.2020 11:00:00 8,6 6,4 7,9 9,4 9,1 20 11 42 23 WSW 1022,3 20 0 0,2
17.02.2020 10:00:00 8,9 7,2 8,2 9,4 9,1 22 12 37 20 WSW 1021,4 20 0 0,2
17.02.2020 09:00:00 9,0 7,6 8,4 9,5 9,1 15 8 27 15 WSW 1020,7 20 0 0,2
17.02.2020 08:00:00 9,0 7,6 8,4 9,5 9,0 14 7 37 20 WSW 1019,9 20 0 0,7
17.02.2020 07:00:00 9,2 8,1 8,7 9,6 9,1 21 12 33 18 WSW 1019,4 10 0 1,0
17.02.2020 06:00:00 9,0 8,7 8,8 9,7 9,1 15 8 21 12 SSW 1019,2 9 0 2,4
17.02.2020 05:00:00 9,1 8,8 8,9 9,7 9,1 15 8 22 12 SSW 1019,2 5 0 0,6
17.02.2020 04:00:00 9,1 8,8 8,9 9,8 9,0 10 5 18 10 SSW 1019,5 3,7 0 0,4
17.02.2020 03:00:00 9,3 8,8 9,0 9,9 9,1 9 5 20 11 SW 1019,5 8 0 0,2
17.02.2020 02:00:00 9,6 8,8 9,2 9,9 9,1 8 5 23 12 W 1019,6 18 0 0,4
17.02.2020 01:00:00 9,9 8,7 9,4 9,9 9,1 16 8 33 18 W 1019,4 20 0 0,6
17.02.2020 00:00:00 10,6 9,4 10,0 9,9 9,0 21 11 54 29 WNW 1018,5 10 0 0,2
16.02.2020 23:00:00 15,7 8,4 14,1 9,9 9,0 18 10 49 26 SW 1015,7 20 0 0,0
16.02.2020 22:00:00 16,0 7,7 14,8 9,9 9,0 24 13 46 25 SSW 1015,7 20 0 0,0
16.02.2020 21:00:00 16,0 7,5 15,0 9,9 9,1 26 14 49 26 SW 1015,6 20 0 0,0
16.02.2020 20:00:00 15,9 6,9 14,4 10,0 9,0 28 15 46 25 SW 1015,3 20 0 0,0
16.02.2020 19:00:00 15,7 6,9 14,4 10,0 9,0 25 14 52 28 SSW 1015,2 20 0 0,0
16.02.2020 18:00:00 16,4 6,8 15,0 10,0 9,0 25 14 50 27 SW 1014,8 20 20 0,0
16.02.2020 17:00:00 17,7 6,8 17,4 9,8 9,0 28 15 50 27 SW 1014,7 20 56 0,0
16.02.2020 16:00:00 18,3 6,5 18,3 9,6 9,0 24 13 58 31 WSW 1014,5 20 48 0,0
16.02.2020 15:00:00 18,2 6,4 18,8 9,3 9,0 37 20 56 31 SW 1014,6 20 60 0,0
16.02.2020 14:00:00 18,3 6,5 18,7 9,0 9,0 25 14 57 31 WSW 1015,0 20 56 0,0
16.02.2020 13:00:00 17,7 5,9 18,3 8,8 9,0 31 17 53 29 SW 1015,5 20 57 0,0
16.02.2020 12:00:00 17,4 5,7 16,7 8,6 9,0 26 14 46 25 SW 1016,1 20 60 0,0
16.02.2020 11:00:00 15,4 5,6 14,6 8,4 9,0 19 10 40 22 SW 1016,4 20 26 0,0
16.02.2020 10:00:00 14,7 4,9 12,5 8,4 9,0 26 14 45 24 SW 1016,5 20 32 0,0
16.02.2020 09:00:00 13,2 4,3 9,7 8,4 9,0 18 10 27 15 SSW 1016,5 20 8 0,0
16.02.2020 08:00:00 12,1 4,8 10,6 8,5 9,0 16 9 25 13 SSW 1016,1 20 0 0,0
16.02.2020 07:00:00 11,5 5,6 9,6 8,4 9,0 14 8 20 11 S 1016,5 20 0 0,0
16.02.2020 06:00:00 10,6 6,2 9,8 8,4 9,0 11 6 16 9 S 1016,9 20 0 0,0
16.02.2020 05:00:00 11,3 5,8 10,2 8,5 9,0 11 6 18 10 SSE 1017,0 20 0 0,0
16.02.2020 04:00:00 12,5 5,4 10,1 8,5 9,0 15 8 24 13 SSW 1017,7 20 0 0,0
16.02.2020 03:00:00 10,9 6,0 9,6 8,5 9,0 12 7 22 12 S 1018,3 20 0 0,0
16.02.2020 02:00:00 11,7 6,4 10,7 8,5 9,0 16 9 22 12 SSW 1019,0 20 0 0,0
16.02.2020 01:00:00 11,9 6,2 10,8 8,5 9,0 14 8 29 16 SSW 1019,2 20 0 0,0
16.02.2020 00:00:00 11,9 5,7 10,1 8,6 9,0 22 12 29 15 SSW 1019,4 20 0 0,0
15.02.2020 23:00:00 10,5 5,9 9,7 8,6 9,0 15 8 22 12 SSW 1020,1 20 0 0,0
15.02.2020 22:00:00 10,5 5,5 9,9 8,6 9,0 11 6 19 11 SSW 1020,6 20 0 0,0
15.02.2020 21:00:00 11,0 5,3 10,0 8,7 9,0 13 7 17 9 SSW 1020,6 20 0 0,0
15.02.2020 20:00:00 11,4 5,3 9,2 8,8 9,0 13 7 17 9 SSW 1021,1 20 0 0,0
15.02.2020 19:00:00 11,1 5,8 9,4 8,8 9,0 8 4 13 7 SSW 1020,8 20 0 0,0
15.02.2020 18:00:00 11,5 6,0 10,0 8,7 9,0 8 4 14 7 SSW 1020,0 20 0 0,0
15.02.2020 17:00:00 12,9 5,8 12,3 8,6 9,0 9 5 21 11 SW 1020,0 20 0 0,0
15.02.2020 16:00:00 13,6 5,5 13,6 8,2 9,0 12 7 26 14 SW 1020,3 20 18 0,0
15.02.2020 15:00:00 14,4 5,7 16,9 7,8 9,0 18 10 26 14 SSW 1020,7 20 60 0,0
15.02.2020 14:00:00 13,7 7,0 16,1 7,3 9,0 13 7 22 12 S 1020,8 17 60 0,0
15.02.2020 13:00:00 12,8 6,8 14,8 6,9 9,0 13 7 19 10 S 1022,1 18 60 0,0
15.02.2020 12:00:00 11,2 6,7 13,2 6,6 9,0 10 5 16 8 SW 1023,2 18 60 0,0
15.02.2020 11:00:00 9,1 5,5 8,8 6,4 9,0 9 5 14 7 SSE 1023,6 19 60 0,0
15.02.2020 10:00:00 5,6 3,6 3,0 6,5 9,0 9 5 15 8 SE 1024,3 18 60 0,0
15.02.2020 09:00:00 2,1 1,4 0,4 6,6 9,0 8 4 9 5 E 1025,1 17 6 0,0
15.02.2020 08:00:00 1,9 1,5 -0,6 6,8 9,0 4 2 6 3 E 1025,0 15 0 0,0
15.02.2020 07:00:00 1,7 1,1 0,4 6,9 9,0 6 4 11 6 SE 1024,6 18 0 0,0
15.02.2020 06:00:00 2,2 1,8 1,0 7,1 9,0 5 3 10 5 SE 1024,8 18 0 0,0
15.02.2020 05:00:00 2,0 1,4 0,2 7,3 9,0 4 2 10 6 SE 1025,0 18 0 0,0
15.02.2020 04:00:00 2,9 2,0 0,4 7,5 9,0 6 3 10 5 SSE 1025,3 19 0 0,0
15.02.2020 03:00:00 3,2 2,2 0,4 7,7 9,0 7 4 10 5 SSE 1025,6 20 0 0,0
15.02.2020 02:00:00 3,6 2,4 1,0 7,9 9,0 9 5 12 6 SSE 1025,7 20 0 0,0
15.02.2020 01:00:00 3,7 2,7 1,2 8,1 9,0 8 4 10 5 SSE 1026,0 20 0 0,0
15.02.2020 00:00:00 4,7 3,4 2,3 8,3 9,0 8 5 10 6 S 1026,1 20 0 0,0
14.02.2020 23:00:00 5,8 3,6 3,3 8,5 9,0 8 4 11 6 SSE 1026,3 20 0 0,0
14.02.2020 22:00:00 6,2 3,9 3,8 8,7 9,0 6 3 10 6 S 1026,9 20 0 0,0
14.02.2020 21:00:00 7,2 4,2 3,6 8,9 9,0 5 3 6 4 S 1026,8 20 0 0,0
14.02.2020 20:00:00 8,0 4,8 3,6 9,0 9,0 4 2 9 5 SSW 1026,7 20 0 0,0
14.02.2020 19:00:00 9,3 4,5 6,5 9,1 9,0 6 3 9 5 SW 1026,5 20 0 0,0
14.02.2020 18:00:00 11,1 4,5 10,5 9,0 9,0 6 3 21 12 WSW 1025,7 20 9 0,0
14.02.2020 17:00:00 11,8 4,7 12,0 8,9 9,0 14 8 22 12 WSW 1025,6 20 42 0,0
14.02.2020 16:00:00 11,8 5,0 12,2 8,8 9,0 12 6 24 13 W 1025,7 20 2 0,0
14.02.2020 15:00:00 12,0 5,2 12,5 8,5 9,0 9 5 21 11 W 1026,1 20 8 0,0
14.02.2020 14:00:00 11,5 4,7 12,6 8,3 9,0 11 6 22 12 W 1026,1 20 8 0,0
14.02.2020 13:00:00 10,9 5,6 10,6 8,1 9,0 10 6 24 13 W 1026,3 20 5 0,0
14.02.2020 12:00:00 10,6 5,8 10,9 7,9 9,0 13 7 25 14 WNW 1026,5 20 0 0,0
14.02.2020 11:00:00 9,9 6,8 10,0 7,8 9,0 11 6 23 12 W 1026,1 19 0 0,0
14.02.2020 10:00:00 9,3 6,4 8,8 7,8 9,0 12 6 21 11 WSW 1025,8 20 0 0,0
14.02.2020 09:00:00 8,7 6,1 8,3 7,8 9,0 10 5 23 12 W 1025,3 20 0 0,0
14.02.2020 08:00:00 8,5 6,3 7,8 7,8 9,0 13 7 21 12 WSW 1024,3 20 0 0,0
14.02.2020 07:00:00 8,8 5,4 8,0 7,8 9,0 11 6 22 12 W 1023,5 20 0 0,0
14.02.2020 06:00:00 8,7 5,6 8,4 7,8 9,0 14 7 24 13 W 1022,6 20 0 0,0
14.02.2020 05:00:00 8,8 5,5 8,5 7,8 9,0 14 8 30 16 WSW 1021,5 20 0 0,0
14.02.2020 04:00:00 8,9 6,0 8,6 7,8 9,0 14 7 30 16 W 1020,8 20 0 0,0
14.02.2020 03:00:00 9,0 6,3 8,8 7,8 9,0 16 9 41 22 W 1020,5 20 0 0,0
14.02.2020 02:00:00 9,2 6,3 8,8 7,8 9,0 22 12 40 21 W 1019,8 19 0 0,0
14.02.2020 01:00:00 9,2 6,5 8,9 7,8 9,0 19 11 42 23 W 1019,0 20 0 0,0
14.02.2020 00:00:00 9,3 6,2 7,7 7,8 9,0 19 11 50 27 W 1018,0 20 0 0,0
13.02.2020 23:00:00 9,4 6,1 9,0 7,9 9,1 24 13 42 23 W 1017,1 20 0 0,0
13.02.2020 22:00:00 9,7 5,9 8,9 7,9 9,0 23 12 55 30 W 1015,9 15 0 0,0
13.02.2020 21:00:00 10,0 5,8 8,0 7,9 9,1 32 17 56 31 W 1014,4 18 0 0,0
13.02.2020 20:00:00 9,6 5,8 7,5 7,9 9,1 29 15 68 37 W 1012,7 17 0 0,8
13.02.2020 19:00:00 10,1 4,9 9,2 7,9 9,1 37 20 80 43 WSW 1011,1 20 0 0,0
13.02.2020 18:00:00 10,4 4,5 8,5 7,9 9,1 39 21 68 37 W 1009,9 20 0 0,0
13.02.2020 17:00:00 9,6 5,9 8,1 7,7 9,1 37 20 74 40 W 1009,4 13 4 2,0
13.02.2020 16:00:00 11,5 6,2 11,3 7,6 9,1 42 23 79 42 W 1008,3 19 41 0,0
13.02.2020 15:00:00 11,6 6,1 8,5 7,4 9,1 41 22 80 43 W 1007,4 18 15 0,8
13.02.2020 14:00:00 8,9 7,8 8,2 7,1 9,1 33 18 86 47 W 1008,0 4,9 0 12,1
13.02.2020 13:00:00 11,5 9,2 10,1 6,9 9,1 37 20 82 44 WSW 1007,4 19 0 0,0
13.02.2020 12:00:00 11,1 8,7 10,0 6,7 9,1 32 17 60 33 SW 1008,5 19 0 0,0
13.02.2020 11:00:00 10,9 7,9 9,5 6,5 9,1 39 21 70 38 SW 1008,9 20 5 0,0
13.02.2020 10:00:00 9,3 6,7 7,5 6,4 9,1 33 18 55 30 SW 1010,2 17 0 0,0
13.02.2020 09:00:00 9,1 5,1 5,6 6,4 9,1 34 18 50 27 SW 1011,1 16 0 0,0
13.02.2020 08:00:00 6,7 2,4 4,3 6,4 9,1 22 12 34 19 S 1011,7 20 0 0,0
13.02.2020 07:00:00 5,0 1,8 4,3 6,4 9,1 18 10 27 14 S 1012,5 20 0 0,0
13.02.2020 06:00:00 5,0 2,2 4,2 6,5 9,1 16 9 25 14 SSE 1013,9 20 0 0,0
13.02.2020 05:00:00 4,3 2,3 3,5 6,5 9,1 14 8 22 12 S 1015,5 20 0 0,0
13.02.2020 04:00:00 3,8 1,7 2,4 6,6 9,1 15 8 23 12 SSE 1016,4 20 0 0,0
13.02.2020 03:00:00 3,3 1,5 2,3 6,8 9,1 14 8 20 11 S 1018,3 20 0 0,0
13.02.2020 02:00:00 3,1 1,6 -0,1 7,0 9,1 16 8 20 11 S 1019,2 20 0 0,0
13.02.2020 01:00:00 1,8 0,6 -0,1 7,2 9,1 9 5 15 8 SSE 1020,6 20 0 0,0
13.02.2020 00:00:00 2,1 0,6 0,0 7,4 9,1 8 4 11 6 SSE 1021,5 20 0 0,0
12.02.2020 23:00:00 3,3 1,8 0,4 7,6 9,1 7 4 11 6 SSE 1021,9 20 0 0,0
12.02.2020 22:00:00 4,2 2,2 1,6 7,7 9,1 8 5 11 6 S 1022,1 20 0 0,0
12.02.2020 21:00:00 5,4 2,9 3,4 7,9 9,1 7 4 11 6 S 1022,2 20 0 0,0
12.02.2020 20:00:00 6,0 2,8 4,0 8,0 9,2 9 5 14 7 SSW 1022,3 20 0 0,0
12.02.2020 19:00:00 7,1 3,2 5,1 8,0 9,2 10 6 14 7 SSW 1022,8 20 0 0,0
12.02.2020 18:00:00 9,1 1,7 7,5 8,0 9,1 8 4 21 11 WSW 1022,3 20 43 0,0
12.02.2020 17:00:00 10,1 1,5 10,3 7,8 9,2 11 6 26 14 W 1023,0 20 28 0,0
12.02.2020 16:00:00 10,7 2,0 10,3 7,6 9,2 14 8 28 15 W 1023,2 20 36 0,0
12.02.2020 15:00:00 9,9 1,3 10,5 7,4 9,2 15 8 34 19 W 1023,7 20 35 0,0
12.02.2020 14:00:00 10,2 1,3 9,2 7,1 9,1 20 11 36 20 W 1024,5 20 22 0,0
12.02.2020 13:00:00 9,9 3,2 9,4 6,9 9,2 19 10 38 21 WSW 1024,9 20 40 0,0
12.02.2020 12:00:00 8,8 4,0 9,5 6,7 9,1 20 11 36 19 WSW 1025,6 20 51 0,0
12.02.2020 11:00:00 7,5 3,5 8,0 6,6 9,2 20 11 35 19 WSW 1025,4 20 60 0,0
12.02.2020 10:00:00 6,0 3,3 5,4 6,6 9,1 21 11 34 18 WSW 1025,4 20 56 0,0
12.02.2020 09:00:00 4,2 2,2 3,2 6,7 9,2 16 8 29 16 WSW 1025,4 20 31 0,0
12.02.2020 08:00:00 3,7 2,1 2,9 6,9 9,1 18 10 29 15 WSW 1025,0 20 0 0,0
12.02.2020 07:00:00 3,5 1,9 2,1 7,0 9,1 17 9 27 15 WSW 1024,5 20 0 0,0

tt = Température de l'air
td = dewpoint
tt 5cm = Température de l'air 5cm
tt -20cm = Température de l'air -20cm
tt -100cm = Température de l'air -100cm
ff = Vitesse du vent
fx = gusts
dd = Direction du vent
ppp = reduced air pressure
vv = visibility
sd = Ensoleillement
rr = Quantités de précipitations

stations d'obs. à proximité